Montrose, CO

12:37 AM MST on February 21, 2018 (GMT -0700)
Montrose Regional

Weather History for KMTJ - June, 2013

Change the Weather History Date:

Tuesday, June 11, 2013

  Actual Average Record
Temperature  
Mean Temperature 76 °F 67 °F  
Max Temperature 90 °F 84 °F 91 °F (2006)
Min Temperature 61 °F 50 °F 37 °F (2005)
Degree Days  
Heating Degree Days 0 2  
Month to date heating degree days 9 28  
Since 1 June heating degree days 9 28  
Since 1 July heating degree days 6124 6192  
Cooling Degree Days 11 4  
Month to date cooling degree days 59 31  
Year to date cooling degree days 84 48  
Since 1 June cooling degree days 59 31  
Growing Degree Days 26 (Base 50)    
Moisture  
Dew Point 21 °F    
Average Humidity 16    
Maximum Humidity 24    
Minimum Humidity 8    
Precipitation  
Precipitation 0.00 in 0.02 in 0.16 in (2015)
Month to date precipitation T 0.24  
Year to date precipitation 2.65 4.54  
Sea Level Pressure  
Sea Level Pressure 29.80 in    
Wind  
Wind Speed 13 mph (SSW)    
Max Wind Speed 31 mph    
Max Gust Speed 41 mph    
Visibility 10 miles    
Events      
T = Trace of Precipitation, MM = Missing Value Source: NWS Daily Summary

Daily Weather History Graph

Daily Weather History Graph

Search for Another Location

Airport or City:

Trip Planner

Search our weather history database for the weather conditions in past years. The results will help you decide how hot, cold, wet, or windy it might be!

Date:

Astronomy

Jun. 11, 2013 Rise Set
Actual Time 5:46 AM MDT 8:35 PM MDT
Civil Twilight 5:15 AM MDT 9:07 PM MDT
Nautical Twilight 4:35 AM MDT 9:47 PM MDT
Astronomical Twilight 3:50 AM MDT 10:32 PM MDT
Moon 8:31 AM MDT (6/11) 10:42 PM MDT (6/11)
Length of Visible Light 15h 52m
Length of Day
14h 49m
Waxing Crescent, 8% of the Moon is Illuminated
Jun 11
Waxing Crescent
Jun 16
First Quarter
Jun 23
Full
Jun 29
Last Quarter
Jul 8
New

Hourly Weather History & Observations

Time (MDT) Temp. Dew Point Humidity Pressure Visibility Wind Dir Wind Speed Gust Speed Precip Events Conditions
12:53 AM 69.1 °F 25.0 °F 19% 29.75 in 10.0 mi SE 12.7 mph - N/A   Clear
1:53 AM 66.9 °F 26.1 °F 21% 29.75 in 10.0 mi South 10.4 mph - N/A   Clear
2:53 AM 64.0 °F 27.0 °F 25% 29.76 in 10.0 mi SSE 9.2 mph - N/A   Clear
3:53 AM 64.0 °F 24.1 °F 22% 29.77 in 10.0 mi SE 10.4 mph - N/A   Clear
4:53 AM 66.9 °F 21.0 °F 17% 29.78 in 10.0 mi South 11.5 mph - N/A   Clear
5:53 AM 62.1 °F 21.9 °F 21% 29.81 in 10.0 mi South 9.2 mph - N/A   Clear
6:53 AM 70.0 °F 18.0 °F 14% 29.81 in 10.0 mi South 9.2 mph - N/A   Clear
7:53 AM 75.9 °F 19.9 °F 12% 29.81 in 10.0 mi South 11.5 mph 17.3 mph N/A   Clear
8:53 AM 80.1 °F 16.0 °F 9% 29.81 in 10.0 mi SSE 11.5 mph - N/A   Clear
9:53 AM 82.0 °F 18.0 °F 9% 29.80 in 10.0 mi SW 18.4 mph 28.8 mph N/A   Clear
10:53 AM 84.9 °F 18.0 °F 8% 29.81 in 10.0 mi SSW 19.6 mph 31.1 mph N/A   Clear
11:53 AM 86.0 °F 18.0 °F 8% 29.79 in 10.0 mi SSW 18.4 mph 32.2 mph N/A   Clear
12:53 PM 89.1 °F 19.0 °F 8% 29.79 in 10.0 mi WSW 15.0 mph 32.2 mph N/A   Clear
1:53 PM 89.1 °F 19.0 °F 8% 29.79 in 9.0 mi SW 21.9 mph 41.4 mph N/A   Clear
2:53 PM 90.0 °F 19.9 °F 8% 29.79 in 10.0 mi WSW 18.4 mph 33.4 mph N/A   Clear
3:53 PM 89.1 °F 19.0 °F 8% 29.79 in 10.0 mi WSW 12.7 mph 32.2 mph N/A   Clear
4:53 PM 90.0 °F 21.0 °F 8% 29.77 in 10.0 mi WSW 18.4 mph 28.8 mph N/A   Clear
5:53 PM 89.1 °F 19.0 °F 8% 29.78 in 10.0 mi WSW 23.0 mph 33.4 mph N/A   Clear
6:53 PM 87.1 °F 19.9 °F 8% 29.76 in 10.0 mi SW 11.5 mph 20.7 mph N/A   Clear
7:53 PM 84.9 °F 17.1 °F 8% 29.77 in 10.0 mi WNW 6.9 mph - N/A   Clear
8:53 PM 78.1 °F 19.9 °F 11% 29.81 in 10.0 mi West 4.6 mph - N/A   Clear
9:53 PM 69.1 °F 25.0 °F 19% 29.87 in 10.0 mi SE 6.9 mph - N/A   Clear
10:53 PM 66.9 °F 25.0 °F 21% 29.88 in 10.0 mi SE 9.2 mph - N/A   Clear
11:53 PM 66.0 °F 25.0 °F 21% 29.89 in 10.0 mi SE 11.5 mph - N/A   Clear